Terminal Aerodrome Forecast
Issued by NWS Denver/Boulder, CO

Home | Current Version | Previous Version | Text Only | Print | Product List | Glossary On
Versions: 1 2 3 4 5 6 7 8 9 10 11 12 13 14 15 16 17 18 19 20 21 22 23 24 25 26 27 28 29 30 31 32 33 34 35 36 37 38 39 40 41 42 43 44 45 46 47 48 49 50
045
FTUS45 KBOU 082338
TAFDEN
TAF
KDEN 082338Z 0900/1006 10007KT P6SM FEW140 BKN220
     FM090200 16008KT P6SM SCT140 BKN220
     FM090700 21011KT P6SM SCT220
     FM091700 VRB05KT P6SM FEW220
     FM092000 35013KT P6SM FEW130 SCT220
     FM100200 24007KT P6SM FEW220=

USA.gov is the U.S. government's official web portal to all federal, state and local government web resources and services.